www.pogodaiklimat.ru

Погода и климат >> Архив погоды >> Колумбия >> Monteria


ПОГОДА в Monteria

  • Прогноз погоды в Monteria
  • Монитор погоды в Monteria
  • Климат города

АРХИВ ПОГОДЫ в Monteria

Время (UTC), дата Ветер
(напр.,м/с)
 
Видим.   Явления Облачность Т
(С)
Тd
(С)
f
(%)
Тe
(С)
Тes
(С)
Комфортность P
(гПа)
Po
(гПа)
Тmin
(С)
Tmax
(С)
R
(мм)
R24
(мм)
S
(см)
15 11.10 ЮЗ 4 16 км мгла 10/5 450 м
[Sc diur, vesp As trans]
+28.8 +23.6 74 +39 +41 очень
душно
1013.1 1011.7
18 11.10 ЮЗ 3 16 км мгла 8/4 600 м
[Sc diur, vesp Ac trans]
+31.6 +23.7 63 +43 +49 опасность
перегрева
1010.0 1008.6
21 11.10 штиль 0 15 км осадки на расстоянии 6/6 500 м
[Sc diur, vesp As trans]
+31.2 +23.9 65 +43 +45 опасность
перегрева
1007.9 1006.5
00 12.10 З 3 3000 м слабый дождь 10/8 300 м
[Sc diur, vesp As trans]
+24.8 +24.3 97 +34 +34 очень
душно
1010.8 1009.4 +32.2 8
03 12.10 штиль 0 15 км мгла 6/4 540 м
[Sc diur, vesp As trans]
+23.2 +22.8 98 +32 +32 очень
душно
1012.1 1010.7
15 12.10 Ю 5 16 км мгла 8/4 500 м
[Sc diur, vesp Ac trans]
+29.4 +24.3 74 +41 +44 опасность
перегрева
1013.8 1012.4
18 12.10 штиль 0 16 км мгла 8/4 540 м
[Sc diur, vesp Ac trans]
+31.8 +23.3 61 +43 +52 опасность
перегрева
1010.9 1009.5
21 12.10 штиль 0 16 км мгла 5/5 600 м
[Sc diur, vesp]
+32.0 +23.9 62 +43 +47 опасность
перегрева
1008.7 1007.3
00 13.10 штиль 0 15 км мгла 4/4 600 м
[Sc diur, vesp As trans]
+27.4 +22.7 76 +36 +36 очень
душно
1010.1 1008.7 +33.2
03 13.10 штиль 0 15 км мгла 4/4 600 м
[Sc diur, vesp As trans]
+25.0 +22.8 88 +33 +33 очень
душно
1012.2 1010.8
12 13.10 штиль 0 12 км мгла 8/6 540 м
[Sc diur, vesp As trans]
+22.2 +21.7 97 +29 +30 очень
душно
1013.2 1011.6 +20.8
15 13.10 ЮЗ 4 15 км мгла 5/4 600 м
[Sc diur, vesp As trans]
+29.8 +24.4 73 +42 +47 опасность
перегрева
1013.8 1012.4
18 13.10 штиль 0 16 км мгла 5/5 600 м
[Sc diur, vesp As trans]
+32.0 +23.9 62 +43 +56 опасность
перегрева
1011.2 1008.9
21 13.10 штиль 0 16 км мгла 4/4 600 м
[Sc diur, vesp]
+32.6 +23.9 60 +44 +48 опасность
перегрева
1008.8 1007.4
00 14.10 штиль 0 15 км мгла 6/5 600 м
[Sc diur, vesp As trans]
+28.6 +23.7 75 +39 +39 очень
душно
1010.1 1008.7 +33.4
12 14.10 штиль 0 12 км мгла 3/3 600 м
[Sc diur, vesp As trans]
+24.4 +23.9 97 +33 +34 очень
душно
1012.5 1011.1 +22.0
15 14.10 штиль 0 16 км мгла 5/1 600 м
[Sc diur, vesp As trans]
+29.6 +25.1 77 +43 +56 опасность
перегрева
1013.6 1012.2
18 14.10 штиль 0 16 км мгла 6/4 600 м
[Sc diur, vesp As trans]
+32.6 +24.8 64 +46 +58 опасность
перегрева
1011.2 1009.8
21 14.10 СЗ 2 16 км мгла 5/5 600 м
[Sc diur, vesp]
+32.6 +23.6 59 +44 +46 опасность
перегрева
1008.1 1006.8
00 15.10 С 2 15 км мгла 3/3 600 м
[Sc diur, vesp]
+27.0 +24.6 87 +38 +38 очень
душно
1010.2 1008.8 +33.0
03 15.10 штиль 0 15 км мгла 3/3 600 м
[Sc diur, vesp As trans]
+25.2 +24.4 95 +35 +35 очень
душно
1012.5 1011.1
12 15.10 штиль 0 12 км мгла 3/1 600 м
[Sc diur, vesp As trans]
+24.7 +23.1 91 +33 +34 очень
душно
1011.8 1010.4 +22.8
15 15.10 штиль 0 16 км мгла 5/5 540 м
[Sc diur, vesp]
+31.0 +25.1 71 +45 +54 опасность
перегрева
1011.7 1010.3
18 15.10 штиль 0 16 км мгла 6/6 540 м
[Sc diur, vesp]
+33.4 +24.8 61 +47 +57 опасность
перегрева
1009.4 1008.0
21 15.10 СЗ 5 16 км мгла 4/4 600 м
[Sc diur, vesp]
+32.2 +24.7 65 +45 +47 опасность
перегрева
1007.0 1005.6
00 16.10 штиль 0 15 км мгла 3/3 600 м
[Sc diur, vesp]
+26.6 +25.0 91 +38 +38 очень
душно
1008.2 1007.8 +34.0
03 16.10 штиль 0 15 км мгла 1/1 600 м
[Sc diur, vesp]
+25.2 +24.6 96 +35 +35 очень
душно
1011.1 1009.7
12 16.10 штиль 0 12 км мгла {морось} 10/5 500 м
[Sc diur, vesp As trans]
+22.4 +21.9 97 +30 +30 очень
душно
1009.9 1008.5 +20.8 14
15 16.10 штиль 0 15 км мгла 10/3 500 м
[Sc diur, vesp As trans]
+26.0 +24.6 92 +37 +42 очень
душно
1011.2 1009.8
18 16.10 штиль 0 16 км мгла 8/5 600 м
[Sc diur, vesp As trans]
+31.4 +25.3 70 +45 +53 опасность
перегрева
1008.8 1007.4
21 16.10 СВ 3 16 км осадки на расстоянии 8/4 540 м
[Sc diur, vesp As trans]
+31.2 +25.6 72 +46 +47 опасность
перегрева
1006.7 1005.3
00 17.10 З 3 16 км мгла 8/3 360 м
[St As trans]
+26.0 +24.9 94 +37 +37 очень
душно
1008.1 1006.7 +32.4 5
12 17.10 штиль 0 12 км мгла 5/1 660 м
[Sc diur, vesp As trans]
+24.4 +24.1 98 +34 +34 очень
душно
1010.1 1008.7 +22.8 5
15 17.10 Ю 3 16 км мгла 8/3 450 м
[Sc diur, vesp As trans]
+29.2 +24.6 76 +41 +46 опасность
перегрева
1011.5 1010.1
18 17.10 штиль 0 16 км мгла 9/4 600 м
[Sc diur, vesp Ac trans]
+32.6 +23.9 60 +44 +52 опасность
перегрева
1008.8 1007.4
21 17.10 З 4 16 км мгла 9/1 600 м
[Sc diur, vesp As trans]
+30.4 +25.9 77 +45 +47 опасность
перегрева
1007.1 1005.7
00 18.10 штиль 0 16 км мгла 5/4 500 м
[Frnb As trans]
+27.0 +25.1 89 +39 +39 очень
душно
1008.8 1007.4 +33.2
03 18.10 штиль 0 12 км мгла 4/1 600 м
[Sc diur, vesp Ac As]
+25.8 +24.7 94 +37 +37 очень
душно
1011.1 1009.7

 

Местоположение метеостанции Monteria (Колумбия): широта 8.82 долгота -75.85 высота над уровнем моря 26 м.

В архиве по умолчанию представлена погода в Monteria за последнюю неделю. Архивные данные за месяц целиком и за предыдущие месяцы, начиная с января 2011 года, Вы можете получить, выбрав интересующий диапазон дат из раскрывающегося списка и нажав кнопку "Ввод!".


*Определитесь, кто Вы:
робот инопланетянин человек

Внимание! Время в таблицах - всемирное. Для получения местного времени необходимо прибавить поправку, которая в Monteria равна -5 ч.

Смотрите также архив погоды в соседних городах и на ближайших метеорологических станциях:

Погода в Apartado (Колумбия) (145 км)
Погода в Cartagena (Колумбия) (185 км)
Погода в Barranquilla (Колумбия) (257 км)
Погода в Medellin (Колумбия) (290 км)
Погода в Barrancabermeja (Колумбия) (302 км)
Погода в Rionegro (Колумбия) (303 км)
Погода в Santa Marta (Колумбия) (312 км)
Погода в Valledupar (Колумбия) (337 км)
Погода в Bucaramanga (Колумбия) (349 км)
Погода в Quibdo (Колумбия) (355 км)

Пояснения к столбцам:

Ветер - указаны скорость ветра в м/с - средняя за 10 мин, порывы в срок и между сроками (в фигурных скобках) и направление, откуда дует ветер: С - северный, СВ - северо-восточный, В - восточный, ЮВ - юго-восточный, Ю - южный, ЮЗ - юго-западный, З - западный, СЗ - северо-западный.
Видимость - горизонтальная дальность видимости в метрах или километрах. При видимости от 1 до 10 км при отсутствии осадков обычно наблюдается дымка, при ухудшении видимости до 1 км и менее - туман. В сухую погоду видимость может ухудшаться дымом, пылью или мглою.
Явления - указаны атмосферные явления, наблюдавшиеся в срок или в последний час перед сроком; фигурными скобками обозначены явления, наблюдавшиеся между сроками (за 1-3 часа до срока); квадратными скобками обозначены град или гололедные отложения с указанием их диаметра в мм.
Облачность - указаны через наклонную черту общая и нижняя облачность в баллах и высота нижней границы облаков в метрах; квадратными скобками обозначены формы облаков: Ci - перистые, Cs - перисто-слоистые, Cc - перисто-кучевые, Ac - высококучевые, As - высокослоистые, Sc - слоисто-кучевые, Ns - слоисто-дождевые, Cu - кучевые, Cb - кучево-дождевые. Подробнее классификацию облаков см. в Атласе облаков (PDF).
T - Температура воздуха - температура, измеренная на высоте 2 м над землей.
Td - Температура точки росы - температура, при понижении до которой содержащийся в воздухе водяной пар достигнет насыщения.
f - Относительная влажность воздуха - влажноcть воздуха, измеренная на высоте 2 м над землей.
Te - Эффективная температура - температура, которую ощущает одетый по сезону человек в тени. Характеристика душности погоды. При расчете учитывается влияние влажности воздуха и скорости ветра на теплоощущения человека.
Tes - Эффективная температура на солнце - температура, которую ощущает человек, с поправкой на солнечный нагрев. Характеристика знойности погоды. Зависит от высоты солнца над горизонтом, облачности и скорости ветра. Ночью, в пасмурную погоду, а также при ветре 12 м/с и более поправка равна нулю.
P - Атмосферное давление - приведенное к уровню моря атмосферное давление.
Po - Атмосферное давление - измеренное на уровне метеостанции атмосферное давление.
Tmin - Минимальная температура - минимум температуры воздуха на высоте 2 м над землей.
Tmax - Максимальная температура - максимум температуры воздуха на высоте 2 м над землей.
R - Количество осадков - Количество выпавших осадков за период времени, мм. При наведении курсора мыши на число - период времени, за который выпало указанное количество осадков.
R24 - Количество осадков - Количество выпавших осадков за 24 часа, мм.
S - Снежный покров - Высота снежного покрова, см. При наведении курсора мыши на число - состояние снежного покрова и степень покрытия местности в баллах.